Location: Unnamed
(23.5608°S, 46.6833°W)
Time: 16:13:42
(UTC-03:00)

VELOX 1 - Pass Details

Date: 28 March 2023
Orbit: 617 x 630 km, 98.4° (Epoch: 01 June)

Event Time Altitude Azimuth Distance (km) Brightness Sun altitude
Rises 05:31:59 0° 148° (SSE) 2,947 ? -10.3°
Reaches altitude 10° 05:34:41 10° 131° (SE) 2,031 ? -9.7°
Maximum altitude 05:38:00 21° 82° (E) 1,439 ? -9.0°
Drops below altitude 10° 05:41:18 10° 33° (NNE) 2,010 ? -8.2°
Sets 05:43:56 0° 17° (NNE) 2,907 ? -7.6°
